• In Uzbekistan
  • List of Countries
  • For 7 days
  • Water Temperature
  • Satellite Maps
  • Weather Map
  • Weather Widgets
  • user-avatar
    Login

    Hourly Weather La-Plata

    Today, 30 March, Thursday

    Time Temperature Precipitation Wind Pressure Humidity
    00:00 +22°C° 0 mm 10 mps 760 mmHg 68%
    01:00 +22°C° 0 mm 9 mps 761 mmHg 70%
    02:00 +22°C° 0 mm 9 mps 761 mmHg 70%
    03:00 +22°C° 0 mm 9 mps 761 mmHg 70%
    04:00 +22°C° 0 mm 9 mps 761 mmHg 71%
    05:00 +22°C° 0 mm 9 mps 761 mmHg 71%
    06:00 +22°C° 0 mm 9 mps 761 mmHg 70%
    07:00 +22°C° 0 mm 9 mps 761 mmHg 68%
    08:00 +23°C° 0 mm 9 mps 761 mmHg 67%
    09:00 +24°C° 0 mm 9 mps 761 mmHg 63%
    10:00 +26°C° 0 mm 8 mps 761 mmHg 59%
    11:00 +27°C° 0 mm 8 mps 760 mmHg 55%
    12:00 +28°C° 0 mm 8 mps 760 mmHg 52%
    13:00 +29°C° 0 mm 7 mps 760 mmHg 50%
    14:00 +30°C° 0 mm 6 mps 759 mmHg 47%
    15:00 +29°C° 0 mm 6 mps 759 mmHg 49%
    16:00 +29°C° 0 mm 5 mps 759 mmHg 52%
    17:00 +28°C° 0 mm 5 mps 759 mmHg 54%
    18:00 +27°C° 0 mm 5 mps 759 mmHg 57%
    19:00 +27°C° 0 mm 6 mps 759 mmHg 59%
    20:00 +26°C° 0 mm 6 mps 760 mmHg 61%
    21:00 +26°C° 0 mm 7 mps 760 mmHg 62%
    22:00 +26°C° 0 mm 7 mps 760 mmHg 63%
    23:00 +26°C° 0 mm 8 mps 761 mmHg 64%

    Tomorrow, 31 March, Friday

    Time Temperature Precipitation Wind Pressure Humidity
    00:00 +24°C° 0 mm 8 mps 761 mmHg 67%
    01:00 +23°C° 0 mm 8 mps 761 mmHg 70%
    02:00 +22°C° 0 mm 8 mps 761 mmHg 73%
    03:00 +22°C° 0 mm 7 mps 761 mmHg 75%
    04:00 +22°C° 0 mm 7 mps 762 mmHg 78%
    05:00 +21°C° 0 mm 7 mps 762 mmHg 80%
    06:00 +22°C° 0 mm 7 mps 762 mmHg 77%
    07:00 +22°C° 0 mm 7 mps 763 mmHg 74%
    08:00 +23°C° 0 mm 7 mps 763 mmHg 71%
    09:00 +26°C° 0 mm 7 mps 763 mmHg 65%
    10:00 +27°C° 0 mm 6 mps 763 mmHg 59%
    11:00 +28°C° 0 mm 6 mps 763 mmHg 54%
    12:00 +29°C° 0 mm 5 mps 763 mmHg 50%
    13:00 +30°C° 0 mm 5 mps 763 mmHg 47%
    14:00 +32°C° 0 mm 5 mps 763 mmHg 44%
    15:00 +30°C° 0 mm 5 mps 763 mmHg 46%
    16:00 +29°C° 0 mm 5 mps 763 mmHg 48%
    17:00 +29°C° 0 mm 6 mps 763 mmHg 51%
    18:00 +27°C° 0 mm 6 mps 763 mmHg 56%
    19:00 +26°C° 0 mm 6 mps 763 mmHg 61%
    20:00 +23°C° 0 mm 6 mps 764 mmHg 66%
    21:00 +23°C° 0 mm 6 mps 764 mmHg 65%
    22:00 +23°C° 0 mm 6 mps 764 mmHg 64%
    23:00 +22°C° 0 mm 6 mps 764 mmHg 64%

    Day after tomorrow, 1 April, Saturday

    Time Temperature Precipitation Wind Pressure Humidity
    00:00 +22°C° 0 mm 6 mps 765 mmHg 65%
    01:00 +22°C° 0 mm 6 mps 765 mmHg 67%
    02:00 +21°C° 0 mm 6 mps 765 mmHg 69%
    03:00 +21°C° 0 mm 6 mps 765 mmHg 71%
    04:00 +21°C° 0 mm 6 mps 765 mmHg 73%
    05:00 +21°C° 0 mm 6 mps 765 mmHg 75%
    06:00 +21°C° 0 mm 7 mps 765 mmHg 72%
    07:00 +22°C° 0 mm 7 mps 765 mmHg 70%
    08:00 +23°C° 0 mm 8 mps 765 mmHg 67%
    09:00 +24°C° 0 mm 8 mps 765 mmHg 61%
    10:00 +27°C° 0 mm 8 mps 765 mmHg 55%
    11:00 +28°C° 0 mm 7 mps 765 mmHg 49%
    12:00 +29°C° 0 mm 7 mps 764 mmHg 46%
    13:00 +29°C° 0 mm 7 mps 764 mmHg 43%
    14:00 +30°C° 0 mm 6 mps 763 mmHg 41%
    15:00 +30°C° 0 mm 6 mps 763 mmHg 42%
    16:00 +29°C° 0 mm 5 mps 762 mmHg 43%
    17:00 +29°C° 0 mm 5 mps 762 mmHg 45%
    18:00 +28°C° 0 mm 5 mps 762 mmHg 50%
    19:00 +27°C° 0 mm 5 mps 763 mmHg 54%
    20:00 +26°C° 0 mm 5 mps 763 mmHg 59%
    21:00 +26°C° 0 mm 7 mps 763 mmHg 59%
    22:00 +26°C° 0 mm 8 mps 763 mmHg 58%
    23:00 +24°C° 0 mm 9 mps 763 mmHg 58%

    2 April, Sunday

    Time Temperature Precipitation Wind Pressure Humidity
    00:00 +24°C° 0 mm 8 mps 762 mmHg 62%
    01:00 +23°C° 0 mm 8 mps 762 mmHg 66%
    02:00 +23°C° 0 mm 8 mps 761 mmHg 70%
    03:00 +23°C° 0 mm 8 mps 761 mmHg 71%
    04:00 +22°C° 0 mm 8 mps 761 mmHg 73%
    05:00 +22°C° 0 mm 7 mps 761 mmHg 75%
    06:00 +22°C° 0 mm 7 mps 761 mmHg 74%
    07:00 +23°C° 0 mm 7 mps 761 mmHg 72%
    08:00 +23°C° 0 mm 7 mps 761 mmHg 70%
    09:00 +24°C° 0 mm 7 mps 761 mmHg 67%
    10:00 +24°C° 0 mm 6 mps 761 mmHg 64%
    11:00 +26°C° 0 mm 6 mps 761 mmHg 60%
    12:00 +26°C° 0 mm 5 mps 760 mmHg 59%
    13:00 +26°C° 0 mm 5 mps 759 mmHg 57%
    14:00 +27°C° 0 mm 5 mps 759 mmHg 55%
    15:00 +26°C° 0 mm 4 mps 759 mmHg 60%
    16:00 +25°C° 0 mm 4 mps 758 mmHg 65%
    17:00 +24°C° 0 mm 3 mps 758 mmHg 69%
    18:00 +22°C° 0 mm 3 mps 758 mmHg 74%
    19:00 +21°C° 0 mm 3 mps 759 mmHg 79%
    20:00 +20°C° 0 mm 3 mps 759 mmHg 85%
    21:00 +20°C° 0 mm 3 mps 759 mmHg 84%
    22:00 +20°C° 0 mm 3 mps 759 mmHg 84%
    23:00 +21°C° 0 mm 3 mps 759 mmHg 84%

    3 April, Monday

    Time Temperature Precipitation Wind Pressure Humidity
    00:00 +21°C° 0 mm 3 mps 759 mmHg 85%
    01:00 +21°C° 0 mm 4 mps 758 mmHg 85%
    02:00 +20°C° 0 mm 4 mps 758 mmHg 86%
    03:00 +20°C° 0.1 mm 4 mps 758 mmHg 87%
    04:00 +20°C° 0.1 mm 4 mps 758 mmHg 89%
    05:00 +20°C° 0.1 mm 5 mps 758 mmHg 90%
    06:00 +20°C° 0.1 mm 5 mps 758 mmHg 89%
    07:00 +20°C° 0.1 mm 5 mps 759 mmHg 88%
    08:00 +21°C° 0.1 mm 5 mps 759 mmHg 87%
    09:00 +22°C° 0 mm 5 mps 759 mmHg 76%
    10:00 +25°C° 0 mm 5 mps 759 mmHg 65%
    11:00 +26°C° 0 mm 5 mps 759 mmHg 54%
    12:00 +28°C° 0 mm 4 mps 759 mmHg 42%
    13:00 +29°C° 0 mm 4 mps 758 mmHg 31%
    14:00 +31°C° 0 mm 3 mps 758 mmHg 19%
    15:00 +29°C° 0 mm 3 mps 758 mmHg 21%
    16:00 +28°C° 0 mm 3 mps 757 mmHg 22%
    17:00 +27°C° 0 mm 3 mps 757 mmHg 24%
    18:00 +24°C° 0 mm 3 mps 758 mmHg 30%
    19:00 +20°C° 0 mm 3 mps 758 mmHg 36%
    20:00 +18°C° 0 mm 3 mps 759 mmHg 42%
    21:00 +17°C° 0 mm 3 mps 759 mmHg 47%
    22:00 +16°C° 0 mm 3 mps 759 mmHg 52%
    23:00 +14°C° 0 mm 3 mps 759 mmHg 57%

    4 April, Tuesday

    Time Temperature Precipitation Wind Pressure Humidity
    00:00 +14°C° 0 mm 2 mps 759 mmHg 63%
    01:00 +14°C° 0 mm 2 mps 759 mmHg 68%
    02:00 +13°C° 0 mm 2 mps 759 mmHg 74%
    03:00 +13°C° 0 mm 2 mps 759 mmHg 72%
    04:00 +13°C° 0 mm 2 mps 759 mmHg 69%
    05:00 +13°C° 0 mm 2 mps 759 mmHg 66%
    06:00 +15°C° 0 mm 2 mps 759 mmHg 59%
    07:00 +18°C° 0 mm 2 mps 759 mmHg 52%
    08:00 +20°C° 0 mm 2 mps 760 mmHg 45%
    09:00 +23°C° 0 mm 2 mps 759 mmHg 38%
    10:00 +26°C° 0 mm 2 mps 759 mmHg 32%
    11:00 +28°C° 0 mm 2 mps 759 mmHg 25%
    12:00 +29°C° 0 mm 2 mps 758 mmHg 24%
    13:00 +29°C° 0 mm 2 mps 758 mmHg 23%
    14:00 +30°C° 0 mm 2 mps 757 mmHg 22%
    15:00 +29°C° 0 mm 3 mps 757 mmHg 25%
    16:00 +28°C° 0 mm 3 mps 756 mmHg 29%
    17:00 +26°C° 0 mm 3 mps 756 mmHg 33%
    18:00 +25°C° 0.1 mm 3 mps 757 mmHg 39%
    19:00 +22°C° 0.1 mm 4 mps 757 mmHg 46%
    20:00 +20°C° 0.1 mm 4 mps 757 mmHg 53%
    21:00 +20°C° 0.2 mm 4 mps 757 mmHg 57%
    22:00 +20°C° 0.2 mm 4 mps 757 mmHg 61%
    23:00 +20°C° 0.2 mm 3 mps 757 mmHg 66%
    Show more